Location: Unspecified
(35.7250°N, 0.0000°E)
Time: 01:01:21
(UTC+00:00)

SR - Pass Details

Date: 20 June 2019
Orbit: 580 x 876 km, 66.7° (Epoch: 20 July)

Event Time Altitude Azimuth Distance (km) Brightness Sun altitude
Exits shadow 03:05:38 13° 166° (SSE) 1,726 ? -16.6°
Maximum altitude 03:08:45 28° 110° (ESE) 1,094 ? -16.1°
Drops below altitude 10° 03:12:23 10° 51° (NE) 1,902 ? -15.6°
Sets 03:14:51 0° 39° (NE) 2,820 ? -15.2°
